Overview Statistics Trail Chart Weather Telemetry Raw packets
 

This is the latest recevied weather packets stored in our database for station/object N5CSU. If no packets are shown the sender has not sent any weather packets the latest 10 day(s).

<< 1 2 3 4 5 >>
Time Temp. Humidity Pressure Rain* Wind** Luminosity Snow
1788623864 32.78° C 53% 1015.1 hPa 0 mm - 203 W/m² -
1788623563 32.78° C 59% 1015 hPa 0 mm - 390 W/m² -
1788623257 32.22° C 60% 1014.9 hPa 0 mm - 393 W/m² -
1788622954 31.67° C 64% 1014.9 hPa 0 mm - 369 W/m² -
1788622648 31.67° C 64% 1014.8 hPa 0 mm - 19 W/m² -
1788622344 31.67° C 66% 1015.1 hPa 0 mm - 18 W/m² -
1788622039 31.11° C 67% 1015.1 hPa 0 mm - 18 W/m² -
1788621733 31.11° C 68% 1015 hPa 0 mm - 17 W/m² -
1788621433 31.11° C 68% 1015.1 hPa 0 mm - 17 W/m² -
1788621129 30.56° C 69% 1015.1 hPa 0 mm - 16 W/m² -
1788620824 30.56° C 71% 1014.8 hPa 0 mm - 16 W/m² -
1788620523 30° C 71% 1014.8 hPa 0 mm - 16 W/m² -
1788620221 30° C 71% 1014.9 hPa 0 mm - 15 W/m² -
1788619921 30° C 72% 1014.8 hPa 0 mm - 15 W/m² -
1788619615 30° C 72% 1014.8 hPa 0 mm - 15 W/m² -
1788619315 29.44° C 74% 1014.7 hPa 0 mm - 14 W/m² -
1788619008 29.44° C 73% 1015 hPa 0 mm - 14 W/m² -
1788618703 28.89° C 74% 1014.8 hPa 0 mm - 14 W/m² -
1788618402 28.89° C 76% 1014.9 hPa 0 mm - 13 W/m² -
1788618097 28.89° C 76% 1014.9 hPa 0 mm - 13 W/m² -
1788617796 28.33° C 78% 1014.8 hPa 0 mm - 12 W/m² -
1788617493 28.33° C 77% 1014.9 hPa 0 mm - 12 W/m² -
1788617187 28.33° C 78% 1014.8 hPa 0 mm - 11 W/m² -
1788616887 27.78° C 78% 1014.9 hPa 0 mm - 11 W/m² -
1788616582 27.78° C 79% 1015 hPa 0 mm - 10 W/m² -

* Rain latest hour (hover to see other rain measurements)
** Current wind speed in m/s (hover to see current wind gust speed)